This is the latest recevied weather packets stored in our database for station/object KC5TIL-3. If no packets are shown the sender has not sent any weather packets the latest 10 day(s).
| Time | Temp. | Humidity | Pressure | Rain* | Wind** | Luminosity | Snow |
|---|---|---|---|---|---|---|---|
| 1777585092 | 16.67° C | 70% | 1010.8 hPa | 0 mm | 1.79 m/s, 288° | - | - |
| 1777584794 | 16.67° C | 70% | 1011.8 hPa | 0 mm | 2.68 m/s, 223° | - | - |
| 1777584195 | 16.67° C | 74% | 1011.8 hPa | 0 mm | 2.68 m/s, 4° | - | - |
| 1777583897 | 16.67° C | 75% | 1011.8 hPa | 0 mm | 2.68 m/s, 58° | - | - |
| 1777583599 | 17.22° C | 75% | 1011.8 hPa | 0 mm | 1.79 m/s, 103° | - | - |
| 1777583297 | 17.22° C | 75% | 1011.8 hPa | 0 mm | 2.24 m/s, 83° | - | - |
| 1777582999 | 17.22° C | 75% | 1011.8 hPa | 0 mm | 1.79 m/s, 32° | - | - |
| 1777582701 | 17.22° C | 74% | 1011.8 hPa | 0 mm | 2.24 m/s, 65° | - | - |
| 1777582395 | 17.22° C | 73% | 1011.8 hPa | 0 mm | 1.79 m/s, 30° | - | - |
| 1777582092 | 17.22° C | 72% | 1011.8 hPa | 0 mm | 1.79 m/s, 76° | - | - |
| 1777581493 | 16.67° C | 70% | 1011.8 hPa | 0 mm | 2.68 m/s, 51° | - | - |
| 1777581194 | 16.67° C | 70% | 1011.8 hPa | 0 mm | 1.79 m/s, 317° | - | - |
| 1777580595 | 17.22° C | 69% | 1011.8 hPa | 0 mm | 2.68 m/s, 139° | - | - |
| 1777580296 | 17.22° C | 70% | 1011.8 hPa | 0 mm | 1.79 m/s, 63° | - | - |
| 1777579697 | 17.22° C | 71% | 1011.8 hPa | 0 mm | 2.24 m/s, 128° | - | - |
| 1777579400 | 17.22° C | 72% | 1011.8 hPa | 0 mm | 2.68 m/s, 101° | - | - |
| 1777579101 | 17.22° C | 72% | 1011.8 hPa | 0 mm | 2.24 m/s, 21° | - | - |
| 1777578799 | 17.78° C | 72% | 1011.8 hPa | 0 mm | 2.68 m/s, 72° | - | - |
| 1777578497 | 17.78° C | 73% | 1011.8 hPa | 0 mm | 2.24 m/s, 261° | - | - |
| 1777578199 | 17.78° C | 73% | 1011.8 hPa | 0 mm | 3.13 m/s, 131° | - | - |
| 1777577892 | 17.78° C | 75% | 1011.8 hPa | 0 mm | 3.13 m/s, 55° | - | - |
| 1777577594 | 17.78° C | 76% | 1010.8 hPa | 0 mm | 3.13 m/s, 41° | - | - |
| 1777577296 | 17.78° C | 77% | 1010.8 hPa | 0 mm | 1.79 m/s, 12° | - | - |
| 1777576990 | 17.78° C | 77% | 1010.8 hPa | 0 mm | 2.68 m/s, 45° | - | - |
| 1777576393 | 17.78° C | 78% | 1010.8 hPa | 0 mm | 3.13 m/s, 8° | - | - |
* Rain latest hour (hover to see other rain measurements)
** Current wind speed in m/s (hover to see current wind gust speed)